Zurück zum Katalog

STARLINK-36242

AktivKommunikationVLEO
NORAD 68958·PAYLOAD·🇺🇸 United States

Gestartet May 1, 2026 von Cape Canaveral Space Force Station

Loading…

Nächste Überflüge (nächste 24 Stunden)

TLE

AktuellSource: CelesTrak SupGP

Epoche: Sep 14, 2026, 21:06 UTC

1 68958C 26099H   26257.87965278  .00070826  00000+0  20909-2 0  2577
2 68958  53.1576 102.1680 0001286  77.2423 154.2093 15.34381162    14

Verfolge STARLINK-36242 in Echtzeit mit AllMySat

Download on the App Store